カタログに戻る

ATLAS 5 CENTAUR R/B

運用中MEO
NORAD 41020·ROCKET BODY·🇺🇸 United States

打ち上げ Oct 31, 2015 から Cape Canaveral Space Force Station

Loading…

次のパス (今後24時間)

TLE

最新Source: Space-Track

元期: Sep 12, 2026, 16:23 UTC

1 41020U 15062B   26255.68283435 -.00000070  00000-0  00000-0 0  9998
2 41020  57.3772  44.4691 0164583 338.3828  20.9233  1.90405951 75588

AllMySatでATLAS 5 CENTAUR R/Bをリアルタイム追跡

Download on the App Store